Satellite: CO-58
Catalog number: 28895
Epoch time:      10307.59235248
Element set:    0720
Inclination:      097.9933 deg
RA of node:       187.2894 deg
Eccentricity:    0.0017546
Arg of perigee:   204.4878 deg
Mean anomaly:     155.5462 deg
Mean motion:   14.59956374 rev/day
Decay rate:        9.4e-07 rev/day^2
Epoch rev:           26732
Checksum:              363

Satellite: FALCON
Catalog number: 30776
Epoch time:      10307.97168439
Element set:    0956
Inclination:      035.4342 deg
RA of node:       275.4889 deg
Eccentricity:    0.0001669
Arg of perigee:   318.6285 deg
Mean anomaly:     041.4310 deg
Mean motion:   15.03922668 rev/day
Decay rate:       8.55e-06 rev/day^2
Epoch rev:           20111
Checksum:              307

Satellite: MAST
Catalog number: 31126
Epoch time:      10307.61283828
Element set:       2
Inclination:      097.9236 deg
RA of node:       342.3046 deg
Eccentricity:    0.0094601
Arg of perigee:   152.0250 deg
Mean anomaly:     208.6071 deg
Mean motion:   14.53635906 rev/day
Decay rate:       -4.4e-07 rev/day^2
Epoch rev:           18831
Checksum:              263

Satellite: CAPE1
Catalog number: 31130
Epoch time:      10308.55667062
Element set:      23
Inclination:      097.9233 deg
RA of node:       340.3368 deg
Eccentricity:    0.0103336
Arg of perigee:   158.1138 deg
Mean anomaly:     202.4527 deg
Mean motion:   14.52244845 rev/day
Decay rate:       2.53e-06 rev/day^2
Epoch rev:           18803
Checksum:              266

Satellite: COMPASS
Catalog number: 32787
Epoch time:      10307.25974546
Element set:    0822
Inclination:      097.8790 deg
RA of node:       009.9932 deg
Eccentricity:    0.0015086
Arg of perigee:   188.9063 deg
Mean anomaly:     171.1875 deg
Mean motion:   14.82022366 rev/day
Decay rate:       1.90e-06 rev/day^2
Epoch rev:           13609
Checksum:              321

Satellite: AAUSAT2
Catalog number: 32788
Epoch time:      10308.39666888
Element set:     811
Inclination:      097.8806 deg
RA of node:       011.2738 deg
Eccentricity:    0.0014996
Arg of perigee:   185.5158 deg
Mean anomaly:     174.5888 deg
Mean motion:   14.82177080 rev/day
Decay rate:       3.45e-06 rev/day^2
Epoch rev:           13627
Checksum:              347

Satellite: DO-64
Catalog number: 32789
Epoch time:      10307.71350816
Element set:    0830
Inclination:      097.8876 deg
RA of node:       011.2439 deg
Eccentricity:    0.0015371
Arg of perigee:   186.6219 deg
Mean anomaly:     173.4778 deg
Mean motion:   14.82401420 rev/day
Decay rate:       5.98e-06 rev/day^2
Epoch rev:           13617
Checksum:              320

Satellite: CO-66
Catalog number: 32791
Epoch time:      10307.16786708
Element set:    0812
Inclination:      097.8817 deg
RA of node:       009.8988 deg
Eccentricity:    0.0015686
Arg of perigee:   188.1287 deg
Mean anomaly:     171.9653 deg
Mean motion:   14.81785421 rev/day
Decay rate:       4.96e-06 rev/day^2
Epoch rev:           13603
Checksum:              357

Satellite: RS-30
Catalog number: 32953
Epoch time:      10308.50260998
Element set:     189
Inclination:      082.4994 deg
RA of node:       302.4287 deg
Eccentricity:    0.0019186
Arg of perigee:   152.1720 deg
Mean anomaly:     208.0394 deg
Mean motion:   12.43008965 rev/day
Decay rate:        1.0e-07 rev/day^2
Epoch rev:           11117
Checksum:              286

Satellite: TACSAT-3
Catalog number: 35001
Epoch time:      10308.79716831
Element set:     423
Inclination:      040.4537 deg
RA of node:       088.5826 deg
Eccentricity:    0.0023055
Arg of perigee:   336.4433 deg
Mean anomaly:     023.5328 deg
Mean motion:   15.43409483 rev/day
Decay rate:      6.086e-05 rev/day^2
Epoch rev:            8235
Checksum:              287

Satellite: PHARMSAT
Catalog number: 35002
Epoch time:      10307.80436774
Element set:    0401
Inclination:      040.4697 deg
RA of node:       092.1613 deg
Eccentricity:    0.0025567
Arg of perigee:   332.0965 deg
Mean anomaly:     027.8473 deg
Mean motion:   15.43748049 rev/day
Decay rate:      5.264e-05 rev/day^2
Epoch rev:           08222
Checksum:              285

Satellite: HAWKSAT1
Catalog number: 35003
Epoch time:      10308.52851415
Element set:     430
Inclination:      040.4597 deg
RA of node:       077.5741 deg
Eccentricity:    0.0023839
Arg of perigee:   358.5588 deg
Mean anomaly:     001.5172 deg
Mean motion:   15.48652674 rev/day
Decay rate:     1.4000e-04 rev/day^2
Epoch rev:            8245
Checksum:              284

Satellite: CP6
Catalog number: 35004
Epoch time:      10307.77999232
Element set:     428
Inclination:      040.4622 deg
RA of node:       079.7812 deg
Eccentricity:    0.0022705
Arg of perigee:   357.9288 deg
Mean anomaly:     002.1425 deg
Mean motion:   15.50175253 rev/day
Decay rate:     1.7016e-04 rev/day^2
Epoch rev:            8235
Checksum:              289

Satellite: AEROCUB3
Catalog number: 35005
Epoch time:      10307.71164106
Element set:    0516
Inclination:      040.4645 deg
RA of node:       066.0178 deg
Eccentricity:    0.0023766
Arg of perigee:   027.0258 deg
Mean anomaly:     333.1794 deg
Mean motion:   15.67251895 rev/day
Decay rate:    1.08159e-03 rev/day^2
Epoch rev:           08250
Checksum:              288

